N1JOT Weather Reports


time (UTC)temp
C
wind
direction
speed
KPH
gust
KPH
rain 1hr
cm
rain 24hr
cm
rain mn
cm
humidity
%
barometer
mb
20260505065057 8 0 0.0 3.2 0.00 0.00 0.00 88 1011.7
20260505064559 8 0 0.0 3.2 0.00 0.00 0.00 88 1011.7
20260505064059 8 0 0.0 1.6 0.00 0.00 0.00 88 1011.8
20260505063559 8 0 0.0 4.8 0.00 0.00 0.00 88 1011.8
20260505063057 8 0 0.0 4.8 0.00 0.00 0.00 88 1011.8
20260505062600 8 0 0.0 4.8 0.00 0.00 0.00 88 1011.8
20260505062100 8 0 0.0 3.2 0.00 0.00 0.00 88 1011.8
20260505061601 8 0 0.0 3.2 0.00 0.00 0.00 87 1011.8
20260505061058 8 0 0.0 3.2 0.00 0.00 0.00 87 1011.8
20260505060558 8 0 0.0 4.8 0.00 0.00 0.00 86 1011.7
20260505060059 8 0 0.0 4.8 0.00 0.00 0.00 86 1011.7
20260505055600 9 0 0.0 3.2 0.00 0.00 0.00 86 1011.8
20260505055100 9 0 0.0 3.2 0.00 0.00 0.00 86 1011.8
20260505054600 9 0 0.0 3.2 0.00 0.00 0.00 86 1011.8
20260505054100 9 0 0.0 3.2 0.00 0.00 0.00 85 1011.8
20260505053559 9 0 0.0 3.2 0.00 0.00 0.00 85 1011.8
20260505053101 9 0 0.0 3.2 0.00 0.00 0.00 85 1011.8
20260505052557 9 0 0.0 1.6 0.00 0.00 0.00 85 1011.8
20260505052058 9 0 0.0 1.6 0.00 0.00 0.00 85 1011.8
20260505051607 9 0 0.0 3.2 0.00 0.00 0.00 85 1011.8
20260505051058 9 0 0.0 3.2 0.00 0.00 0.00 85 1011.9
20260505050557 9 0 0.0 3.2 0.00 0.00 0.00 84 1011.9
20260505050105 9 207 0.0 4.8 0.00 0.00 0.00 84 1011.9
20260505041603 10 0 0.0 4.8 0.00 0.00 0.00 82 1012.2
20260505041058 10 0 0.0 4.8 0.00 0.00 0.00 82 1012.2
20260505040558 10 190 0.0 4.8 0.00 0.00 0.00 82 1012.2
20260505035559 10 201 0.0 3.2 0.00 0.00 0.00 81 1012.2
20260505035101 10 0 0.0 8.0 0.00 0.00 0.00 81 1012.1
20260505034603 10 0 0.0 8.0 0.00 0.00 0.00 81 1012.1
20260505034100 10 227 0.0 4.8 0.00 0.00 0.00 80 1012.0
20260505033600 10 0 0.0 4.8 0.00 0.00 0.00 80 1012.1
20260505033100 10 0 1.6 4.8 0.00 0.00 0.00 80 1012.2
20260505032558 10 184 0.0 3.2 0.00 0.00 0.00 79 1012.1
20260505032059 10 194 0.0 6.4 0.00 0.00 0.00 79 1012.1
20260505031601 10 0 0.0 6.4 0.00 0.00 0.00 78 1012.1
20260505031059 10 0 0.0 3.2 0.00 0.00 0.00 78 1012.2
20260505030601 10 0 0.0 3.2 0.00 0.00 0.00 78 1012.3
20260505030100 10 0 0.0 3.2 0.00 0.00 0.00 78 1012.4
20260505025559 10 186 0.0 3.2 0.00 0.00 0.00 78 1012.4
20260505025058 10 0 0.0 3.2 0.00 0.00 0.00 78 1012.4
20260505024607 10 0 0.0 3.2 0.00 0.00 0.00 77 1012.3
20260505024058 10 184 0.0 4.8 0.00 0.00 0.00 77 1012.3
20260505023600 10 0 0.0 6.4 0.00 0.00 0.00 77 1012.3
20260505023102 11 0 1.6 6.4 0.00 0.00 0.00 76 1012.3
20260505022558 11 0 0.0 6.4 0.00 0.00 0.00 75 1012.3
20260505022058 11 196 0.0 6.4 0.00 0.00 0.00 75 1012.4
20260505021559 11 188 0.0 8.0 0.00 0.00 0.00 74 1012.4
20260505021059 11 207 0.0 8.0 0.00 0.00 0.00 74 1012.4
20260505020557 11 0 0.0 6.4 0.00 0.00 0.00 73 1012.4
20260505020100 11 0 0.0 6.4 0.00 0.00 0.00 73 1012.3
20260505015559 11 0 0.0 4.8 0.00 0.00 0.00 72 1012.3
20260505015101 11 187 0.0 9.7 0.00 0.00 0.00 72 1012.3
20260505014559 11 0 1.6 9.7 0.00 0.00 0.00 72 1012.3
20260505014102 12 157 1.6 6.4 0.00 0.00 0.00 71 1012.3
20260505013602 12 182 0.0 6.4 0.00 0.00 0.00 71 1012.2
20260505013126 12 0 1.6 8.0 0.00 0.00 0.00 70 1012.1
20260505012558 12 220 1.6 8.0 0.00 0.00 0.00 70 1012.0
20260505012100 12 0 0.0 9.7 0.00 0.00 0.00 69 1012.1
20260505011622 12 159 0.0 9.7 0.00 0.00 0.00 69 1012.0
20260505011059 12 202 3.2 9.7 0.00 0.00 0.00 68 1011.8
20260505010557 12 219 1.6 9.7 0.00 0.00 0.00 68 1011.6
20260505010113 12 189 1.6 9.7 0.00 0.00 0.00 68 1011.7
20260505005558 12 212 1.6 8.0 0.00 0.00 0.00 68 1011.5
20260505005058 12 216 1.6 8.0 0.00 0.00 0.00 67 1011.3
20260505004559 12 193 1.6 8.0 0.00 0.00 0.00 67 1011.3
20260505004057 12 169 3.2 8.0 0.00 0.00 0.00 67 1011.2
20260505003601 12 200 1.6 9.7 0.00 0.00 0.00 66 1011.2
20260505003104 12 0 1.6 9.7 0.00 0.00 0.00 66 1011.1
20260505002557 12 205 1.6 8.0 0.00 0.00 0.00 65 1011.0
20260505002100 12 0 0.0 8.0 0.00 0.00 0.00 65 1010.9
20260505001600 13 176 1.6 8.0 0.00 0.00 0.00 64 1010.9
20260505001058 13 177 0.0 14.5 0.00 0.00 0.00 62 1010.8
20260505000559 13 188 0.0 14.5 0.00 0.00 0.00 61 1010.7
20260505000107 13 181 0.0 12.9 0.00 0.00 0.00 61 1010.6
20260504235600 13 0 3.2 12.9 0.00 0.00 0.00 59 1010.4
20260504235102 13 195 1.6 11.3 0.00 0.00 0.00 58 1010.4
20260504234600 13 0 3.2 11.3 0.00 0.00 0.00 57 1010.2
20260504234100 14 151 1.6 16.1 0.00 0.00 0.00 57 1010.1
20260504233557 14 171 1.6 16.1 0.00 0.00 0.00 57 1010.1
20260504233106 14 207 3.2 19.3 0.00 0.00 0.00 56 1010.2
20260504232559 14 198 3.2 19.3 0.00 0.00 0.00 55 1010.0
20260504232100 14 182 0.0 11.3 0.00 0.00 0.00 55 1009.9
20260504231557 15 182 1.6 11.3 0.00 0.00 0.00 55 1009.8
20260504231101 15 196 1.6 9.7 0.00 0.00 0.00 54 1009.8
20260504230603 15 187 3.2 14.5 0.00 0.00 0.00 53 1009.7
20260504230107 15 162 3.2 14.5 0.00 0.00 0.00 52 1009.6
20260504225559 15 148 3.2 11.3 0.00 0.00 0.00 52 1009.7
20260504225059 15 190 3.2 14.5 0.00 0.00 0.00 50 1009.6
20260504224603 16 163 4.8 14.5 0.00 0.00 0.00 49 1009.4
20260504224058 16 215 4.8 14.5 0.00 0.00 0.00 49 1009.3
20260504223600 16 248 4.8 14.5 0.00 0.00 0.00 48 1009.2
20260504223105 16 165 3.2 19.3 0.00 0.00 0.00 47 1009.3
20260504222603 16 211 3.2 19.3 0.00 0.00 0.00 48 1009.1
20260504222100 17 205 3.2 14.5 0.00 0.00 0.00 47 1009.1
20260504221607 17 206 3.2 16.1 0.00 0.00 0.00 47 1009.1
20260504221100 17 184 6.4 16.1 0.00 0.00 0.00 48 1009.1
20260504220559 17 176 3.2 14.5 0.00 0.00 0.00 50 1009.1
20260504215559 17 159 6.4 19.3 0.00 0.00 0.00 48 1009.2
20260504215057 17 0 1.6 24.1 0.00 0.00 0.00 49 1009.0
20260504214614 17 200 1.6 25.7 0.00 0.00 0.00 47 1009.0
20260504214058 17 170 3.2 25.7 0.00 0.00 0.00 47 1009.0
20260504213603 17 129 3.2 9.7 0.00 0.00 0.00 47 1009.0
20260504213130 17 215 1.6 14.5 0.00 0.00 0.00 48 1008.9
20260504212602 17 180 3.2 14.5 0.00 0.00 0.00 47 1009.0
20260504212102 18 225 1.6 17.7 0.00 0.00 0.00 46 1008.9
20260504211612 18 158 4.8 32.2 0.00 0.00 0.00 45 1008.9
20260504211101 18 117 3.2 32.2 0.00 0.00 0.00 44 1008.9
20260504210604 18 161 6.4 30.6 0.00 0.00 0.00 44 1008.7
20260504205604 18 200 3.2 32.2 0.00 0.00 0.00 41 1008.8
20260504205102 18 209 4.8 38.6 0.00 0.00 0.00 43 1008.8
20260504204607 18 223 4.8 38.6 0.00 0.00 0.00 40 1008.7
20260504204102 18 207 6.4 19.3 0.00 0.00 0.00 40 1008.7
20260504203600 19 93 6.4 17.7 0.00 0.00 0.00 39 1008.7
20260504203106 19 164 4.8 20.9 0.00 0.00 0.00 40 1008.6
20260504202602 19 243 6.4 20.9 0.00 0.00 0.00 38 1008.7
20260504202103 20 194 4.8 19.3 0.00 0.00 0.00 38 1008.6
20260504201630 20 261 3.2 19.3 0.00 0.00 0.00 39 1008.6
20260504201101 20 158 3.2 20.9 0.00 0.00 0.00 38 1008.5
20260504200602 19 74 8.0 22.5 0.00 0.00 0.00 37 1008.6
20260504200114 20 212 6.4 29.0 0.00 0.00 0.00 37 1008.7
20260504195603 20 145 4.8 29.0 0.00 0.00 0.00 38 1008.7
20260504195100 20 161 3.2 16.1 0.00 0.00 0.00 35 1008.7
20260504194614 20 115 3.2 16.1 0.00 0.00 0.00 35 1008.7
20260504194101 20 151 4.8 27.4 0.00 0.00 0.00 34 1008.6
20260504193603 21 157 4.8 27.4 0.00 0.00 0.00 35 1008.7
20260504193119 21 211 6.4 17.7 0.00 0.00 0.00 32 1008.5
20260504192604 21 207 3.2 17.7 0.00 0.00 0.00 35 1008.6
20260504192104 21 128 4.8 16.1 0.00 0.00 0.00 31 1008.6
20260504191608 21 154 3.2 17.7 0.00 0.00 0.00 32 1008.7
20260504191102 21 154 4.8 19.3 0.00 0.00 0.00 32 1008.7
20260504190602 21 239 4.8 24.1 0.00 0.00 0.00 29 1008.8
20260504190117 21 202 8.0 24.1 0.00 0.00 0.00 28 1008.8
20260504185601 21 201 6.4 16.1 0.00 0.00 0.00 27 1008.8
20260504185100 21 198 8.0 14.5 0.00 0.00 0.00 30 1008.9
20260504184629 22 271 4.8 16.1 0.00 0.00 0.00 28 1008.7
20260504184102 21 277 6.4 17.7 0.00 0.00 0.00 27 1008.7
20260504183602 21 189 4.8 24.1 0.00 0.00 0.00 28 1008.6
20260504183100 21 208 4.8 24.1 0.00 0.00 0.00 28 1008.8
20260504182602 22 252 3.2 14.5 0.00 0.00 0.00 29 1009.0
20260504182102 21 292 4.8 16.1 0.00 0.00 0.00 28 1009.1
20260504181603 21 182 4.8 17.7 0.00 0.00 0.00 29 1009.2
20260504181057 21 234 3.2 17.7 0.00 0.00 0.00 28 1009.0
20260504180559 21 199 8.0 20.9 0.00 0.00 0.00 28 1009.2
20260504175600 21 225 3.2 25.7 0.00 0.00 0.00 29 1009.2
20260504175059 21 175 8.0 25.7 0.00 0.00 0.00 28 1009.1
20260504174558 21 284 8.0 22.5 0.00 0.00 0.00 28 1008.9
20260504174057 21 246 8.0 16.1 0.00 0.00 0.00 30 1008.9
20260504173559 21 193 3.2 20.9 0.00 0.00 0.00 29 1008.9
20260504173058 21 207 9.7 20.9 0.00 0.00 0.00 27 1009.0
20260504172557 21 210 4.8 16.1 0.00 0.00 0.00 30 1009.0
20260504172057 21 200 4.8 24.1 0.00 0.00 0.00 29 1009.1
20260504171613 20 226 8.0 24.1 0.00 0.00 0.00 28 1009.2
20260504171057 21 164 6.4 22.5 0.00 0.00 0.00 31 1009.2
20260504170559 21 214 8.0 22.5 0.00 0.00 0.00 28 1009.2
20260504160105 20 197 6.4 19.3 0.00 0.00 0.00 31 1010.1
20260504151103 19 118 8.0 14.5 0.00 0.00 0.00 32 1010.4
20260504150605 19 259 3.2 17.7 0.00 0.00 0.00 36 1010.6
20260504141101 17 208 6.4 16.1 0.00 0.00 0.00 36 1011.0
20260504140601 17 217 3.2 14.5 0.00 0.00 0.00 36 1011.1
20260504140113 17 215 4.8 14.5 0.00 0.00 0.00 37 1011.1
20260504130604 15 283 3.2 14.5 0.00 0.00 0.00 43 1011.8
20260504120121 11 0 1.6 6.4 0.00 0.00 0.00 55 1012.1
20260504110600 7 189 1.6 4.8 0.00 0.00 0.00 65 1011.8
20260504110114 7 278 0.0 3.2 0.00 0.00 0.00 67 1011.8
20260504100556 5 0 0.0 1.6 0.00 0.00 0.00 71 1011.6
20260504100115 5 0 0.0 1.6 0.00 0.00 0.00 71 1011.6
20260504090106 5 0 0.0 0.0 0.00 0.00 0.00 70 1011.6
20260504081600 6 0 0.0 1.6 0.00 0.00 0.00 71 1011.5
20260504081059 5 0 0.0 3.2 0.00 0.00 0.00 70 1011.4
20260504080603 5 0 0.0 3.2 0.00 0.00 0.00 71 1011.4